Subscribe to the Big Brother Live Feeds

Author Topic: Locations  (Read 64012 times)

0 Members and 1 Guest are viewing this topic.

Offline puddin

  • **puddinpiepork**
  • RFF Assistant Administrator
  • I Live at RFF
  • *****
  • Posts: 85481
Re: Locations
« Reply #225 on: November 17, 2007, 10:30:26 AM »
Well lets forget about the blog  :lol: (note to self, if you think its too stupid to post it probably is  :lol:), thanks apskips.


Offline puddin

  • **puddinpiepork**
  • RFF Assistant Administrator
  • I Live at RFF
  • *****
  • Posts: 85481
Re: Locations
« Reply #226 on: November 24, 2007, 10:21:44 PM »
History for Dubrovnik, Croatia
Thursday, July 19, 2007

Temperature:
Mean Temperature 84 F / 29 C  -   
Max Temperature 93 F / 34 C  -  - ()
Min Temperature 75 F / 24 C  -  - ()
Cooling Degree Days 19     
Growing Degree Days 34 (Base 50)     
Moisture:
Dew Point 56 F / 12 C     
Average Humidity 40     
Maximum Humidity 74     
Minimum Humidity 17     
Precipitation:
Precipitation 0.00 in / 0.0 cm  -  - ()
Sea Level Pressure:
Sea Level Pressure 29.95 in / 1014 hPa     
Wind:
Wind Speed 5 mph / 8 km/h ()     
Max Wind Speed 15 mph / 24 km/h     
Max Gust Speed -     
Visibility 6.2 miles / 10.0 kilometers     
Events   

Astronomy for July 19, 2007:
                  Rise: Set:
Actual Time: 5:25 AM CEST 8:20 PM CEST
Civil Twilight: 4:52 AM CEST 8:53 PM CEST
Nautical Twilight: 4:09 AM CEST 9:35 PM CEST
Astronomical Twilight: 3:20 AM CEST 10:24 PM CEST
Moon: 10:34 AM CEST (7/19) 10:48 PM CEST (7/19)
Length Of Visible Light: 16h 01m
Length of Day: 14h 54m






Hourly Observations 
   

Time (CEST): Temp: Dew Point: Humidity: Sea Level Pressure: Visibility: Wind Dir: Wind Speed: Gust Speed: Precip: Events: Conditions:
12:00 AM 91.4 F / 33.0 C  48.2 F / 9.0 C  23% 29.95 in / 1014 hPa  -  Variable 3.5 mph / 5.6 km/h / 1.5 m/s  -  N/A    Clear
12:30 AM 87.8 F / 31.0 C  50.0 F / 10.0 C  27% 29.95 in / 1014 hPa  -  Variable 5.8 mph / 9.3 km/h / 2.6 m/s  -  N/A    Clear
1:00 AM 89.6 F / 32.0 C  48.2 F / 9.0 C  24% 29.95 in / 1014 hPa  -  ENE 8.1 mph / 13.0 km/h / 3.6 m/s  -  N/A    Clear
1:30 AM 91.4 F / 33.0 C  46.4 F / 8.0 C  21% 29.95 in / 1014 hPa  -  NNE 9.2 mph / 14.8 km/h / 4.1 m/s  -  N/A    Clear
2:00 AM 89.6 F / 32.0 C  46.4 F / 8.0 C  22% 29.95 in / 1014 hPa  -  NNE 3.5 mph / 5.6 km/h / 1.5 m/s  -  N/A    Clear
2:30 AM 89.6 F / 32.0 C  46.4 F / 8.0 C  22% 29.95 in / 1014 hPa  -  NE 8.1 mph / 13.0 km/h / 3.6 m/s  -  N/A    Clear
3:00 AM 87.8 F / 31.0 C  46.4 F / 8.0 C  24% 29.95 in / 1014 hPa  -  NE 8.1 mph / 13.0 km/h / 3.6 m/s  -  N/A    Clear
3:30 AM 82.4 F / 28.0 C  50.0 F / 10.0 C  32% 29.95 in / 1014 hPa  -  ESE 6.9 mph / 11.1 km/h / 3.1 m/s  -  N/A    Clear
4:00 AM 82.4 F / 28.0 C  51.8 F / 11.0 C  35% 29.95 in / 1014 hPa  -  SSE 5.8 mph / 9.3 km/h / 2.6 m/s  -  N/A    Clear
4:30 AM 78.8 F / 26.0 C  60.8 F / 16.0 C  54% 29.95 in / 1014 hPa  -  ESE 6.9 mph / 11.1 km/h / 3.1 m/s  -  N/A    Clear
5:00 AM 77.0 F / 25.0 C  68.0 F / 20.0 C  74% 29.95 in / 1014 hPa  -  ESE 8.1 mph / 13.0 km/h / 3.6 m/s  -  N/A    Clear
5:30 AM 75.2 F / 24.0 C  64.4 F / 18.0 C  69% 29.95 in / 1014 hPa  -  ESE 5.8 mph / 9.3 km/h / 2.6 m/s  -  N/A    Clear
6:00 AM 75.2 F / 24.0 C  64.4 F / 18.0 C  69% 29.95 in / 1014 hPa  -  ESE 8.1 mph / 13.0 km/h / 3.6 m/s  -  N/A    Clear
6:30 AM 77.0 F / 25.0 C  60.8 F / 16.0 C  57% 29.98 in / 1015 hPa  -  ESE 9.2 mph / 14.8 km/h / 4.1 m/s  -  N/A    Clear
7:00 AM 80.6 F / 27.0 C  59.0 F / 15.0 C  48% 29.98 in / 1015 hPa  -  ESE 9.2 mph / 14.8 km/h / 4.1 m/s  -  N/A    Clear
7:30 AM 82.4 F / 28.0 C  60.8 F / 16.0 C  48% 29.98 in / 1015 hPa  -  ESE 6.9 mph / 11.1 km/h / 3.1 m/s  -  N/A    Clear
8:00 AM 84.2 F / 29.0 C  59.0 F / 15.0 C  42% 29.98 in / 1015 hPa  -  East 8.1 mph / 13.0 km/h / 3.6 m/s  -  N/A    Clear
8:30 AM 86.0 F / 30.0 C  57.2 F / 14.0 C  37% 29.98 in / 1015 hPa  -  East 8.1 mph / 13.0 km/h / 3.6 m/s  -  N/A    Clear
9:00 AM 89.6 F / 32.0 C  53.6 F / 12.0 C  29% 29.98 in / 1015 hPa  -  East 9.2 mph / 14.8 km/h / 4.1 m/s  -  N/A    Clear
9:30 AM 91.4 F / 33.0 C  57.2 F / 14.0 C  31% 29.98 in / 1015 hPa  -  SSE 6.9 mph / 11.1 km/h / 3.1 m/s  -  N/A    Clear
10:00 AM 87.8 F / 31.0 C  66.2 F / 19.0 C  49% 29.98 in / 1015 hPa  -  South 8.1 mph / 13.0 km/h / 3.6 m/s  -  N/A    Clear
10:30 AM 87.8 F / 31.0 C  66.2 F / 19.0 C  49% 30.01 in / 1016 hPa  -  SSE 9.2 mph / 14.8 km/h / 4.1 m/s  -  N/A    Clear
11:00 AM 86.0 F / 30.0 C  66.2 F / 19.0 C  51% 29.98 in / 1015 hPa  -  South 10.4 mph / 16.7 km/h / 4.6 m/s  -  N/A    Clear
11:30 AM 87.8 F / 31.0 C  64.4 F / 18.0 C  46% 29.98 in / 1015 hPa  -  South 10.4 mph / 16.7 km/h / 4.6 m/s  -  N/A    Clear
12:00 PM 89.6 F / 32.0 C  62.6 F / 17.0 C  40% 29.98 in / 1015 hPa  -  SSE 11.5 mph / 18.5 km/h / 5.1 m/s  -  N/A    Clear
12:30 PM 89.6 F / 32.0 C  59.0 F / 15.0 C  36% 29.98 in / 1015 hPa  6.2 miles / 10.0 kilometers  SSE 11.5 mph / 18.5 km/h / 5.1 m/s  -  N/A    Partly Cloudy
1:00 PM 91.4 F / 33.0 C  55.4 F / 13.0 C  29% 29.98 in / 1015 hPa  6.2 miles / 10.0 kilometers  SSE 12.7 mph / 20.4 km/h / 5.7 m/s  -  N/A    Partly Cloudy
1:30 PM 89.6 F / 32.0 C  55.4 F / 13.0 C  31% 29.98 in / 1015 hPa  6.2 miles / 10.0 kilometers  SSE 15.0 mph / 24.1 km/h / 6.7 m/s  -  N/A    Partly Cloudy
2:00 PM 89.6 F / 32.0 C  55.4 F / 13.0 C  31% 29.98 in / 1015 hPa  6.2 miles / 10.0 kilometers  South 10.4 mph / 16.7 km/h / 4.6 m/s  -  N/A    Partly Cloudy
2:30 PM 89.6 F / 32.0 C  57.2 F / 14.0 C  33% 29.98 in / 1015 hPa  6.2 miles / 10.0 kilometers  South 8.1 mph / 13.0 km/h / 3.6 m/s  -  N/A    Partly Cloudy
3:00 PM 91.4 F / 33.0 C  55.4 F / 13.0 C  29% 29.98 in / 1015 hPa  6.2 miles / 10.0 kilometers  South 6.9 mph / 11.1 km/h / 3.1 m/s  -  N/A    Partly Cloudy
3:30 PM 89.6 F / 32.0 C  55.4 F / 13.0 C  31% 29.98 in / 1015 hPa  6.2 miles / 10.0 kilometers  South 6.9 mph / 11.1 km/h / 3.1 m/s  -  N/A    Partly Cloudy
4:00 PM 91.4 F / 33.0 C  55.4 F / 13.0 C  29% 29.95 in / 1014 hPa  -  SSE 6.9 mph / 11.1 km/h / 3.1 m/s  -  N/A    Clear
4:30 PM 89.6 F / 32.0 C  59.0 F / 15.0 C  36% 29.95 in / 1014 hPa  -  South 6.9 mph / 11.1 km/h / 3.1 m/s  -  N/A    Clear
5:00 PM 87.8 F / 31.0 C  62.6 F / 17.0 C  43% 29.95 in / 1014 hPa  -  South 4.6 mph / 7.4 km/h / 2.1 m/s  -  N/A    Clear
5:30 PM 87.8 F / 31.0 C  69.8 F / 21.0 C  55% 29.95 in / 1014 hPa  -  Variable 3.5 mph / 5.6 km/h / 1.5 m/s  -  N/A    Clear
6:00 PM 86.0 F / 30.0 C  69.8 F / 21.0 C  58% 29.95 in / 1014 hPa  -  WNW 4.6 mph / 7.4 km/h / 2.1 m/s  -  N/A    Clear
6:30 PM 86.0 F / 30.0 C  68.0 F / 20.0 C  55% 29.95 in / 1014 hPa  -  WNW 6.9 mph / 11.1 km/h / 3.1 m/s  -  N/A    Clear
7:00 PM 86.0 F / 30.0 C  64.4 F / 18.0 C  48% 29.92 in / 1013 hPa  -  WNW 6.9 mph / 11.1 km/h / 3.1 m/s  -  N/A    Clear
7:30 PM 87.8 F / 31.0 C  60.8 F / 16.0 C  40% 29.92 in / 1013 hPa  -  Variable 2.3 mph / 3.7 km/h / 1.0 m/s  -  N/A    Clear
8:00 PM 84.2 F / 29.0 C  66.2 F / 19.0 C  55% 29.92 in / 1013 hPa  -  NW 3.5 mph / 5.6 km/h / 1.5 m/s  -  N/A    Clear
8:30 PM 82.4 F / 28.0 C  59.0 F / 15.0 C  45% 29.92 in / 1013 hPa  -  NW 6.9 mph / 11.1 km/h / 3.1 m/s  -  N/A    Clear
9:00 PM 84.2 F / 29.0 C  57.2 F / 14.0 C  40% 29.92 in / 1013 hPa  -  Variable 2.3 mph / 3.7 km/h / 1.0 m/s  -  N/A    Clear
9:30 PM 89.6 F / 32.0 C  51.8 F / 11.0 C  27% 29.92 in / 1013 hPa  -  NNE 6.9 mph / 11.1 km/h / 3.1 m/s  -  N/A    Clear
10:00 PM 93.2 F / 34.0 C  50.0 F / 10.0 C  23% 29.92 in / 1013 hPa  -  NNE 9.2 mph / 14.8 km/h / 4.1 m/s  -  N/A    Clear
10:30 PM 89.6 F / 32.0 C  55.4 F / 13.0 C  31% 29.92 in / 1013 hPa  -  ENE 8.1 mph / 13.0 km/h / 3.6 m/s  -  N/A    Clear
11:00 PM 91.4 F / 33.0 C  48.2 F / 9.0 C  23% 29.92 in / 1013 hPa  -  NE 6.9 mph / 11.1 km/h / 3.1 m/s  -  N/A    Clear
11:30 PM 93.2 F / 34.0 C  42.8 F / 6.0 C  17% 29.92 in / 1013 hPa  -  Variable 5.8 mph / 9.3 km/h / 2.6 m/s  -  N/A    Clear

Subscribe to the Big Brother Live Feeds

Offline puddin

  • **puddinpiepork**
  • RFF Assistant Administrator
  • I Live at RFF
  • *****
  • Posts: 85481
Re: Locations
« Reply #227 on: November 26, 2007, 01:37:41 PM »
History for Vilnius, Lithuania (I would suspect Kaunas is fairly the same)
Tuesday, July 17, 2007

Temperature:
Mean Temperature 74 F / 24 C  -   
Max Temperature 86 F / 30 C  -  - ()
Min Temperature 62 F / 17 C  -  - ()
Cooling Degree Days 9     
Growing Degree Days 24 (Base 50)     
Moisture:
Dew Point 64 F / 18 C     
Average Humidity 75     
Maximum Humidity 100     
Minimum Humidity 48     
Precipitation:
Precipitation 0.00 in / 0.0 cm  -  - ()
Sea Level Pressure:
Sea Level Pressure 29.98 in / 1015 hPa     
Wind:
Wind Speed 1 mph / 1 km/h ()     
Max Wind Speed 8 mph / 13 km/h     
Max Gust Speed -     
Visibility 3.1 miles / 5.6 kilometers     
Events Fog

Hourly Observations 
   

Time (EEST): Temp: Dew Point: Humidity: Sea Level Pressure: Visibility: Wind Dir: Wind Speed: Gust Speed: Precip: Events: Conditions:
12:20 AM 66.2 F / 19.0 C  62.6 F / 17.0 C  88% 29.98 in / 1015 hPa  2.5 miles / 4.0 kilometers  Calm Calm -  N/A Fog  Mist
12:33 AM 66.2 F / 19.0 C  64.4 F / 18.0 C  94% 29.98 in / 1015 hPa  2.5 miles / 4.0 kilometers  South 2.3 mph / 3.7 km/h / 1.0 m/s  -  N/A    Mist
12:50 AM 64.4 F / 18.0 C  64.4 F / 18.0 C  100% 29.98 in / 1015 hPa  1.6 miles / 2.6 kilometers  South 2.3 mph / 3.7 km/h / 1.0 m/s  -  N/A Fog  Mist
1:20 AM 64.4 F / 18.0 C  64.4 F / 18.0 C  100% 29.98 in / 1015 hPa  1.8 miles / 2.9 kilometers  ENE 2.3 mph / 3.7 km/h / 1.0 m/s  -  N/A    Mist
1:50 AM 64.4 F / 18.0 C  62.6 F / 17.0 C  94% 29.98 in / 1015 hPa  2.5 miles / 4.0 kilometers  ENE 3.5 mph / 5.6 km/h / 1.5 m/s  -  N/A Fog  Mist
2:20 AM 64.4 F / 18.0 C  62.6 F / 17.0 C  94% 29.98 in / 1015 hPa  2.5 miles / 4.0 kilometers  Variable 2.3 mph / 3.7 km/h / 1.0 m/s  -  N/A Fog  Mist
2:50 AM 64.4 F / 18.0 C  62.6 F / 17.0 C  94% 29.98 in / 1015 hPa  2.5 miles / 4.0 kilometers  NE 3.5 mph / 5.6 km/h / 1.5 m/s  -  N/A Fog  Mist
3:20 AM 64.4 F / 18.0 C  62.6 F / 17.0 C  94% 29.98 in / 1015 hPa  2.5 miles / 4.0 kilometers  NNE 2.3 mph / 3.7 km/h / 1.0 m/s  -  N/A Fog  Mist
3:50 AM 62.6 F / 17.0 C  60.8 F / 16.0 C  94% 29.98 in / 1015 hPa  2.5 miles / 4.0 kilometers  ENE 4.6 mph / 7.4 km/h / 2.1 m/s  -  N/A    Mist
4:20 AM 62.6 F / 17.0 C  60.8 F / 16.0 C  94% 29.98 in / 1015 hPa  2.5 miles / 4.0 kilometers  NE 4.6 mph / 7.4 km/h / 2.1 m/s  -  N/A    Mist
4:50 AM 62.6 F / 17.0 C  60.8 F / 16.0 C  94% 29.98 in / 1015 hPa  2.5 miles / 4.0 kilometers  NE 5.8 mph / 9.3 km/h / 2.6 m/s  -  N/A Fog  Mist
4:56 AM 62.6 F / 17.0 C  60.8 F / 16.0 C  94% 29.98 in / 1015 hPa  2.5 miles / 4.0 kilometers  NNE 3.5 mph / 5.6 km/h / 1.5 m/s  -  N/A Fog  Mist
5:20 AM 62.6 F / 17.0 C  62.6 F / 17.0 C  100% 29.98 in / 1015 hPa  2.5 miles / 4.0 kilometers  North 2.3 mph / 3.7 km/h / 1.0 m/s  -  N/A Fog  Mist
5:26 AM 62.6 F / 17.0 C  62.6 F / 17.0 C  100% 29.98 in / 1015 hPa  1.6 miles / 2.5 kilometers  North 2.3 mph / 3.7 km/h / 1.0 m/s  -  N/A Fog  Mist
5:32 AM 62.6 F / 17.0 C  62.6 F / 17.0 C  100% 29.98 in / 1015 hPa  0.9 miles / 1.5 kilometers  North 2.3 mph / 3.7 km/h / 1.0 m/s  -  N/A Fog  Mist
5:50 AM 62.6 F / 17.0 C  62.6 F / 17.0 C  100% 29.98 in / 1015 hPa  1.7 miles / 2.7 kilometers  Variable 2.3 mph / 3.7 km/h / 1.0 m/s  -  N/A Fog  Mist
6:06 AM 64.4 F / 18.0 C  62.6 F / 17.0 C  94% 29.98 in / 1015 hPa  2.5 miles / 4.0 kilometers  NNW 2.3 mph / 3.7 km/h / 1.0 m/s  -  N/A    Mist
6:20 AM 64.4 F / 18.0 C  62.6 F / 17.0 C  94% 29.98 in / 1015 hPa  4.3 miles / 7.0 kilometers  NNW 2.3 mph / 3.7 km/h / 1.0 m/s  -  N/A    Unknown
6:50 AM 66.2 F / 19.0 C  64.4 F / 18.0 C  94% 29.98 in / 1015 hPa  4.3 miles / 7.0 kilometers  Variable 1.2 mph / 1.9 km/h / 0.5 m/s  -  N/A    Unknown
7:20 AM 68.0 F / 20.0 C  62.6 F / 17.0 C  83% 29.98 in / 1015 hPa  -  Variable 2.3 mph / 3.7 km/h / 1.0 m/s  -  N/A    Clear
7:50 AM 69.8 F / 21.0 C  62.6 F / 17.0 C  78% 29.98 in / 1015 hPa  -  East 3.5 mph / 5.6 km/h / 1.5 m/s  -  N/A    Clear
8:20 AM 71.6 F / 22.0 C  62.6 F / 17.0 C  73% 30.01 in / 1016 hPa  -  East 4.6 mph / 7.4 km/h / 2.1 m/s  -  N/A    Clear
8:50 AM 71.6 F / 22.0 C  64.4 F / 18.0 C  78% 30.01 in / 1016 hPa  -  ESE 6.9 mph / 11.1 km/h / 3.1 m/s  -  N/A    Clear
9:20 AM 73.4 F / 23.0 C  64.4 F / 18.0 C  73% 30.01 in / 1016 hPa  -  ESE 8.1 mph / 13.0 km/h / 3.6 m/s  -  N/A    Clear
9:50 AM 75.2 F / 24.0 C  64.4 F / 18.0 C  69% 30.01 in / 1016 hPa  -  East 6.9 mph / 11.1 km/h / 3.1 m/s  -  N/A    Clear
10:20 AM 75.2 F / 24.0 C  66.2 F / 19.0 C  73% 30.01 in / 1016 hPa  -  ESE 5.8 mph / 9.3 km/h / 2.6 m/s  -  N/A    Clear
10:50 AM 77.0 F / 25.0 C  64.4 F / 18.0 C  65% 30.01 in / 1016 hPa  -  ESE 5.8 mph / 9.3 km/h / 2.6 m/s  -  N/A    Clear
11:20 AM 78.8 F / 26.0 C  64.4 F / 18.0 C  61% 30.01 in / 1016 hPa  -  East 4.6 mph / 7.4 km/h / 2.1 m/s  -  N/A    Clear
11:50 AM 78.8 F / 26.0 C  64.4 F / 18.0 C  61% 30.01 in / 1016 hPa  -  ESE 5.8 mph / 9.3 km/h / 2.6 m/s  -  N/A    Clear
12:20 PM 80.6 F / 27.0 C  62.6 F / 17.0 C  54% 30.01 in / 1016 hPa  -  Variable 2.3 mph / 3.7 km/h / 1.0 m/s  -  N/A    Clear
12:50 PM 80.6 F / 27.0 C  64.4 F / 18.0 C  58% 30.01 in / 1016 hPa  -  ESE 4.6 mph / 7.4 km/h / 2.1 m/s  -  N/A    Clear
1:20 PM 82.4 F / 28.0 C  64.4 F / 18.0 C  54% 30.01 in / 1016 hPa  -  Variable 2.3 mph / 3.7 km/h / 1.0 m/s  -  N/A    Clear
1:50 PM 82.4 F / 28.0 C  64.4 F / 18.0 C  54% 30.01 in / 1016 hPa  -  SE 4.6 mph / 7.4 km/h / 2.1 m/s  -  N/A    Clear
2:20 PM 84.2 F / 29.0 C  62.6 F / 17.0 C  48% 30.01 in / 1016 hPa  -  SE 5.8 mph / 9.3 km/h / 2.6 m/s  -  N/A    Clear
2:50 PM 84.2 F / 29.0 C  66.2 F / 19.0 C  55% 29.98 in / 1015 hPa  -  ESE 4.6 mph / 7.4 km/h / 2.1 m/s  -  N/A    Clear
3:20 PM 84.2 F / 29.0 C  66.2 F / 19.0 C  55% 29.98 in / 1015 hPa  -  East 5.8 mph / 9.3 km/h / 2.6 m/s  -  N/A    Clear
3:50 PM 84.2 F / 29.0 C  66.2 F / 19.0 C  55% 29.98 in / 1015 hPa  -  ESE 6.9 mph / 11.1 km/h / 3.1 m/s  -  N/A    Clear
4:20 PM 86.0 F / 30.0 C  66.2 F / 19.0 C  51% 29.98 in / 1015 hPa  -  SE 6.9 mph / 11.1 km/h / 3.1 m/s  -  N/A    Clear
4:50 PM 86.0 F / 30.0 C  66.2 F / 19.0 C  51% 29.98 in / 1015 hPa  -  SE 5.8 mph / 9.3 km/h / 2.6 m/s  -  N/A    Clear
5:20 PM 86.0 F / 30.0 C  68.0 F / 20.0 C  55% 29.98 in / 1015 hPa  -  SE 5.8 mph / 9.3 km/h / 2.6 m/s  -  N/A    Clear
5:50 PM 86.0 F / 30.0 C  68.0 F / 20.0 C  55% 29.98 in / 1015 hPa  -  ESE 5.8 mph / 9.3 km/h / 2.6 m/s  -  N/A    Clear
6:20 PM 86.0 F / 30.0 C  68.0 F / 20.0 C  55% 29.98 in / 1015 hPa  -  SE 6.9 mph / 11.1 km/h / 3.1 m/s  -  N/A    Clear
6:31 PM 86.0 F / 30.0 C  68.0 F / 20.0 C  55% 29.98 in / 1015 hPa  6.2 miles / 10.0 kilometers  SE 5.8 mph / 9.3 km/h / 2.6 m/s  -  N/A    Scattered Clouds
6:50 PM 86.0 F / 30.0 C  68.0 F / 20.0 C  55% 29.98 in / 1015 hPa  6.2 miles / 10.0 kilometers  SE 6.9 mph / 11.1 km/h / 3.1 m/s  -  N/A    Scattered Clouds
7:20 PM 84.2 F / 29.0 C  69.8 F / 21.0 C  62% 29.98 in / 1015 hPa  6.2 miles / 10.0 kilometers  SE 6.9 mph / 11.1 km/h / 3.1 m/s  -  N/A    Scattered Clouds
7:50 PM 84.2 F / 29.0 C  69.8 F / 21.0 C  62% 29.95 in / 1014 hPa  6.2 miles / 10.0 kilometers  ESE 5.8 mph / 9.3 km/h / 2.6 m/s  -  N/A    Scattered Clouds
8:20 PM 82.4 F / 28.0 C  69.8 F / 21.0 C  66% 29.98 in / 1015 hPa  4.3 miles / 7.0 kilometers  ESE 4.6 mph / 7.4 km/h / 2.1 m/s  -  N/A    Mostly Cloudy
8:50 PM 80.6 F / 27.0 C  68.0 F / 20.0 C  65% 29.95 in / 1014 hPa  4.3 miles / 7.0 kilometers  ESE 5.8 mph / 9.3 km/h / 2.6 m/s  -  N/A    Mostly Cloudy
9:20 PM 77.0 F / 25.0 C  68.0 F / 20.0 C  74% 29.98 in / 1015 hPa  4.3 miles / 7.0 kilometers  ESE 6.9 mph / 11.1 km/h / 3.1 m/s  -  N/A    Mostly Cloudy
9:50 PM 75.2 F / 24.0 C  68.0 F / 20.0 C  78% 29.98 in / 1015 hPa  4.3 miles / 7.0 kilometers  ESE 5.8 mph / 9.3 km/h / 2.6 m/s  -  N/A    Mostly Cloudy
10:20 PM 75.2 F / 24.0 C  66.2 F / 19.0 C  73% 29.98 in / 1015 hPa  4.3 miles / 7.0 kilometers  SE 5.8 mph / 9.3 km/h / 2.6 m/s  -  N/A    Mostly Cloudy
10:50 PM 75.2 F / 24.0 C  66.2 F / 19.0 C  73% 29.98 in / 1015 hPa  4.3 miles / 7.0 kilometers  SE 6.9 mph / 11.1 km/h / 3.1 m/s  -  N/A    Unknown
11:20 PM 75.2 F / 24.0 C  64.4 F / 18.0 C  69% 29.98 in / 1015 hPa  4.3 miles / 7.0 kilometers  SE 8.1 mph / 13.0 km/h / 3.6 m/s  -  N/A    Unknown
11:50 PM 73.4 F / 23.0 C  64.4 F / 18.0 C  73% 29.98 in / 1015 hPa  4.3 miles / 7.0 kilometers  SE 8.1 mph / 13.0 km/h / 3.6 m/s  -  N/A    Unknown



[attachment deleted by admin]

Offline patlini

  • Amazing Race Detective
  • RFF Frantic Poster
  • *****
  • Posts: 2122
Re: Locations
« Reply #228 on: December 04, 2007, 10:16:07 PM »
re: yogi

I've spent the better part of a week looking for him (not that i'm an expert)

asked hubby what he thought (he is of Indian heritage after all) he said that the saffron robes meant he was a priest/monk (prob not new news to anyone) and that meant he could be anywhere.  however going off the skin coloring yogi looked more south Indian.  So we both thought Kerala.

Offline puddin

  • **puddinpiepork**
  • RFF Assistant Administrator
  • I Live at RFF
  • *****
  • Posts: 85481
Re: Locations
« Reply #229 on: December 04, 2007, 10:45:45 PM »
re: yogi

I've spent the better part of a week looking for him (not that i'm an expert)

asked hubby what he thought (he is of Indian heritage after all) he said that the saffron robes meant he was a priest/monk (prob not new news to anyone) and that meant he could be anywhere.  however going off the skin coloring yogi looked more south Indian.  So we both thought Kerala.
Yeah I think hes a priest or something patlini and have been up and down the Goa and Kerala coast and think that some of us agree on this as well but your input helped and really, I thank you for helping and hope you all keep looking.  :xmas49

see he reminds me of these performers, these dudes are near Kerala


Offline puddin

  • **puddinpiepork**
  • RFF Assistant Administrator
  • I Live at RFF
  • *****
  • Posts: 85481
Re: Locations
« Reply #230 on: December 09, 2007, 07:02:05 PM »
Kobe? Well traveled: Japan(Tokyo, Osaka, Kyoto, Kobe ..)

RESUME   
   
Kiomi Kishi
http://realitystaff.com/?id=13633
 

Offline apskip

  • Geographer Extraordinaire
  • TAR Detectives
  • RFF Frantic Poster
  • *****
  • Posts: 6198
Re: Locations
« Reply #231 on: December 09, 2007, 09:37:32 PM »
Kobe has given its name to the special happy beef which farmers in the surrounding area nurture. It is where the major port for the Osaka/Kyoto/Kobe metro area is and where the Arima Onsen hot springs are. It is a city of 1.4 million people. Otherwise, it is an unremarkable prosperous Japanese megacity.

Offline puddin

  • **puddinpiepork**
  • RFF Assistant Administrator
  • I Live at RFF
  • *****
  • Posts: 85481
Re: Locations
« Reply #232 on: December 11, 2007, 06:58:19 PM »
I'm 90% Mumbai India!!  :jumpy:

Offline patlini

  • Amazing Race Detective
  • RFF Frantic Poster
  • *****
  • Posts: 2122
Re: Locations
« Reply #233 on: December 11, 2007, 07:00:29 PM »
ooh tell us more

Offline apskip

  • Geographer Extraordinaire
  • TAR Detectives
  • RFF Frantic Poster
  • *****
  • Posts: 6198
Re: Locations
« Reply #234 on: December 13, 2007, 07:14:40 AM »
I'm 90% Mumbai India!!  :jumpy:

puddin, like the rest of RFF I have been waiting for an answer to patlini's request for you to "TELL US MORE", please. What's up?


Offline Zack.

  • Big Brother Updaters
  • RFF Frantic Poster
  • *****
  • Posts: 1266
Re: Locations
« Reply #235 on: December 13, 2007, 08:20:58 AM »
Mumbai again? TAR's managed five trips to India (making up 7/8 legs), all at different cities. Plus, there are still other sites to explore - Bangalore and Hyderabad the most notable (granted, my knowledge of Indian geography is furnished by Google, expert cartographer :))

Is there any more information on the Taiwan leg/"leg" - specificaly if they just stay in Taipei or if they go to other city/cities like Kaohsiung (mainly because Kaohsiung's Dragon/Tiger pagodas seem like an excellent choice for a pit stop).

Offline apskip

  • Geographer Extraordinaire
  • TAR Detectives
  • RFF Frantic Poster
  • *****
  • Posts: 6198
Re: Locations
« Reply #236 on: December 13, 2007, 10:05:16 AM »
zackattack308, you may have missed my analysis of the Indian situation many weeks ago I think in the Locations thread. In essence, I argued that the timing of the race dictated staying in northern India due to its greater proximity to the line of flight between Europe(various latitudes, the correct one now know to be 44 degrees at Florence) and Osaka at 34 degrees. Delhi at 29 degrees comes closest. Agra next, then Kolkata, then Mumbai, lastly Chennai at 13 degrees. I agree with you that Bangalore and Hyderabad are the logical next major Indian cities to be used. However, the prevailing RFF wisdom is that it is more likely to be a smaller place like Jaisalmer or on the northern Kerala coast where the leg goes. Time is of the essence, so I cannot see either Jaisalmer or Kerala being doable in a short time frame. So where does that leave me? I think it will be something close to either Delhi or Mumbai, both of which have excellent air connections from Europe and to Osaka, better than either Hyderabad or Bangalore to the south.

Offline georgiapeach

  • Amazing Race Moderator
  • RFF Board Moderator
  • I Live at RFF
  • *****
  • Posts: 39683
  • TAR Detective
Re: Locations
« Reply #237 on: December 13, 2007, 10:14:00 AM »
If it was me, I would focus on Mumbai for flights.... :angel:
"Our fans are pretty good. They don't give away too much. Sometimes people love dropping spoilers, but our fans are good. They tend to do it in such a way that doesn't ruin it for fans who don't want to know."--Phil Keoghan

Offline TARAsia Fan

  • TAR/TARA Updater
  • RFF Donor
  • RFF Frantic Poster
  • *****
  • Posts: 8790
Re: Locations
« Reply #238 on: December 13, 2007, 11:35:01 PM »
Hint. Hint.  :cmaslol :cmaslol
Just here to visit.

Offline puddin

  • **puddinpiepork**
  • RFF Assistant Administrator
  • I Live at RFF
  • *****
  • Posts: 85481
Re: Locations
« Reply #239 on: December 13, 2007, 11:38:44 PM »
I promise if Mumbai works out, then Mum-bai I'll tell you and if it doesn't work out I'll tell you either way.

Subscribe to the Big Brother Live Feeds

Offline patlini

  • Amazing Race Detective
  • RFF Frantic Poster
  • *****
  • Posts: 2122
Re: Locations
« Reply #240 on: December 14, 2007, 08:41:01 AM »
How about Goa - fairly close to Mumbai...

Offline puddin

  • **puddinpiepork**
  • RFF Assistant Administrator
  • I Live at RFF
  • *****
  • Posts: 85481
Re: Locations
« Reply #241 on: December 14, 2007, 10:02:33 AM »
How about Goa - fairly close to Mumbai...
Well if India is 2 legs like we suspect, then Goa would be as good a guess as any?

Offline apskip

  • Geographer Extraordinaire
  • TAR Detectives
  • RFF Frantic Poster
  • *****
  • Posts: 6198
Re: Locations
« Reply #242 on: December 14, 2007, 10:11:28 AM »
One of my friends comes from Goa. He is married to the minister of my church and they return to Goa annually to visit the in-laws. If we need any info on Goa beyond the obvious tourist stuff, I can obtain it but they leave for India soon after Christmas so there isn't much time.

From what I know of travelogues, Goa is the former Portuguese colony that got turned back to India. It is known for its beaches, its laid-back hippy life-style, and as one enclave of Christian heritage in vast Hindu and Moslem India.

Getting into Goa is easy from Mumbai. Flying time is one hour. There are 4 flights between 510am and 630am and then 13 flights between 1200pm and 415pm. It will be similarly easy to geto out of. If AR12 has to go anywhere other than Delhia or Mumbai, it looks like Goa would be a fine choice.

Offline patlini

  • Amazing Race Detective
  • RFF Frantic Poster
  • *****
  • Posts: 2122
Re: Locations
« Reply #243 on: December 14, 2007, 02:49:30 PM »
and the race has never been... to Goa that is
« Last Edit: December 14, 2007, 08:39:05 PM by patlini »

Offline apskip

  • Geographer Extraordinaire
  • TAR Detectives
  • RFF Frantic Poster
  • *****
  • Posts: 6198
Re: Locations
« Reply #244 on: December 14, 2007, 10:13:36 PM »
However, if I interpret puddin's comment correctly, the Mumbai area itself is going to be a stop. Anywhere else would have to be a second pitstop in India. Given what we know about the remdinder of the race, the only way that could conceivably happen is if there is no Osaka. I don't believe no Osaka, so I guess that means that no second India leg.


 

Custom Search